{"data":{"norad_id":55648,"intl_designator":"2023-021W","name":"STARLINK-5501","alt_names":[],"object_type":"PAYLOAD","status":"ACTIVE","operator":null,"country":"US","launch_date":"2023-02-17","launch_site_code":"AFWTR","launch_vehicle":null,"mission":null,"orbit_class":"UNKNOWN","rcs_meters":null,"size_class":null,"mass_kg":null,"dimensions":null,"purposes":["comms"],"wikipedia_slug":null,"has_3d_model":false,"image_url":null,"decayed_at":null,"tle_current":{"epoch":"2026-05-25T00:24:49.415040Z","epoch_age_seconds":84273,"freshness":"FRESH","line1":"1 55648U 23021W   26145.01723860 -.00007496  00000+0 -62046-3 0  9999","line2":"2 55648  69.9991 352.0443 0002834 264.0187  96.0649 14.98372637180226","mean_motion":14.98372637,"eccentricity":0.0002834,"inclination_deg":69.9991,"raan_deg":352.0443,"arg_perigee_deg":264.0187,"mean_anomaly_deg":96.0649,"bstar":-0.00062046,"rev_number":18022,"period_min":96.104264349296,"perigee_km":569.95439536616,"apogee_km":573.89368996514,"semimajor_km":6950.0610426657,"source":"CELESTRAK","updated_at":"2026-05-25T13:38:17.850290Z"}}}